Presure
343 132 150 114 125 146 175 133 144 136 133 128 124 135 62 154 127 137 206 133 128 147 148 168 201 146 133 147 143 143 136 152 143 78 161 239 219 215 170 182 122 133 123 165
269 151 194 300 229 132 129 134 132 135 110 118 129 138 154 148 134 135 141 144 145 162 146 155 152 146 145 145 142 129 129 151 154 160 227 147 169 110 150 121 125 128 147 141
282 274 368 177 128 142 131 135 100 138 140 147 132 151 165 166 148 144 143 149 165 158 151 153 153 148 148 151 145 140 143 150 168 125 162 238 174 204 134 175 169 132 129 134
151 138 128 301 133 135 327 171 143 153 154 155 156 150 152 158 158 153 158 151 146 181 140 129 137 138 147 129 139 139 169 194 221 234 154 157 109 145 130 187 134 134 135 170
125 123 134 137 142 143 134 151 149 149 155 160 164 167 164 161 124 126 120 118 143 119 140 150 141 142 159 153 147 120 157 195 182 248 219 128 221 131 201 153 126 135 125 137
295 193 219 154 152 159 159 159 162 167 156 164 138 142 135 133 154 138 136 172 332 202 175 167 150 129 236 139 119 191 145 164 142 235 136 195 142 180 191 137 149 146 123 148
174 150 155 156 157 152 127 193 178 240 134 253 280 314 247 248 253 380 374 170 164 144 162 182 213 171 207 136 185 126 152 144 148 240 205 160 140 158 149 105 132 135 164 162
157 161 155 160 302 222 144 123 128 129 307 144 323 306 307 311 313 328 321 299 323 292 273 215 166 146 163 168 160 134 212 152 144 205 158 165 136 192 134 137 160 150 140 142
194 248 299 177 165 189 123 192 148 294 167 305 294 292 284 291 287 287 300 291 286 281 278 255 206 180 171 155 143 135 135 161 193 199 154 200 151 131 142 160 140 132 143 148
273 281 258 274 208 135 137 147 208 280 287 298 285 282 269 277 272 270 269 275 282 267 276 286 250 201 185 225 174 153 150 145 144 189 225 149 144 146 141 145 148 151 175 196
183 290 244 149 152 247 229 159 272 269 260 271 272 272 273 276 261 267 258 268 259 272 262 270 265 227 158 216 199 223 175 222 194 157 202 175 188 166 178 193 192 193 193 183
197 277 274 146 272 174 268 241 275 276 262 265 280 249 261 260 276 256 257 271 269 259 261 257 273 258 212 211 196 195 209 218 214 214 214 209 168 205 184 189 175 196 203 201
177 210 292 287 285 285 136 242 141 268 268 268 276 280 267 269 251 264 259 266 261 256 264 265 245 245 253 209 209 197 233 223 228 194 185 227 224 200 190 203 198 191 197 198
163 196 184 165 233 328 233 196 227 272 271 195 146 188 282 263 259 260 263 269 260 281 254 248 254 253 243 225 202 202 203 226 183 207 226 190 210 210 193 198 197 203 204 224
213 244 216 232 251 188 257 278 270 173 137 203 279 266 284 288 187 263 255 264 274 269 269 249 239 255 247 244 224 206 193 197 212 215 225 213 207 194 196 155 169 193 204 200
176 245 226 166 164 148 162 158 208 239 248 226 177 288 298 315 111 326 255 237 263 261 283 257 245 261 227 256 236 236 227 235 204 219 218 227 224 210 222 204 215 205 204 203
149 200 214 159 160 208 154 246 239 208 162 231 225 146 161 238 259 283 253 299 203 243 273 289 256 224 216 250 238 236 211 203 243 226 218 219 203 196 231 207 216 217 202 212
186 192 200 211 197 187 161 187 140 171 152 136 175 131 110 202 127 116 150 119 223 266 271 215 256 255 238 245 254 255 203 232 214 189 231 234 214 234 219 197 214 214 211 198
208 194 186 212 193 204 202 169 163 191 159 163 150 148 222 202 142 211 131 142 143 125 139 196 137 187 189 190 207 111 192 205 194 198 240 169 182 198 223 231 198 228 188 219
190 202 190 172 204 189 203 166 168 169 168 133 171 210 185 164 141 140 220 141 124 139 126 220 248 172 175 219 205 173 100 125 159 211 167 184 216 224 235 267 243 228 238 211
198 189 191 144 178 182 188 201 179 179 197 159 190 162 181 138 189 152 121 125 146 143 156 139 144 145 160 223 196 197 159 137 91 147 142 112 215 241 270 256 263 263 265 312
197 192 189 193 190 178 170 178 191 176 181 195 183 186 149 189 154 189 146 119 222 191 174 119 135 186 131 219 160 183 140 158 176 160 153 154 284 261 288 394 492 376 456 394
200 199 198 194 192 195 182 186 189 180 189 189 179 181 179 165 122 148 178 145 160 138 165 142 198 142 165 157 151 180 167 147 167 141 165 288 273 291 354 502 477 448 424 403
227 227 214 209 206 200 192 192 190 189 191 196 193 191 190 201 178 147 168 132 162 136 182 134 152 187 136 189 170 154 153 204 171 205 265 277 272 319 426 452 417 401 382 375
226 226 225 227 233 231 233 238 239 250 253 251 235 212 248 251 172 154 209 134 194 136 132 189 139 130 124 158 176 180 176 194 158 195 250 263 301 339 456 426 396 374 352 415
221 233 230 231 237 237 234 232 242 240 251 247 252 252 246 242 236 242 217 245 145 140 145 183 141 125 154 220 169 229 177 222 190 261 260 281 303 462 568 474 375 455 476 434
Wind_Speed
51 38 39 27 30 36 50 32 36 32 26 32 38 54 3 50 36 48 69 40 45 61 61 69 65 57 46 63 63 64 57 71 50 33 67 69 70 75 66 62 44 45 41 60
35 30 30 37 40 32 27 31 29 29 26 32 37 51 61 49 41 46 49 51 54 67 62 64 63 59 61 64 62 56 57 79 73 73 63 57 68 47 56 44 42 46 58 51
28 15 21 43 26 32 26 29 18 34 35 42 37 52 61 63 51 50 52 56 63 54 61 65 65 61 66 68 65 63 71 76 60 53 55 70 53 73 45 57 62 49 48 53
28 25 22 14 27 25 21 46 28 38 40 46 49 49 53 56 56 55 58 56 58 64 57 50 53 55 65 52 56 60 66 49 60 55 51 71 33 48 41 73 48 52 51 71
21 22 18 22 22 22 21 31 30 32 41 45 53 55 55 57 41 42 45 47 55 55 57 68 62 60 75 70 68 56 55 54 79 65 71 47 79 45 80 65 46 54 45 61
17 14 11 26 24 31 33 37 42 47 40 44 29 32 42 45 50 48 48 64 18 62 70 74 76 56 64 57 51 63 60 80 61 63 53 72 56 77 75 53 65 65 49 69
13 17 21 23 24 24 20 8 17 13 22 16 15 31 18 21 22 52 54 71 71 66 76 67 64 76 60 56 64 56 76 64 73 61 62 65 58 71 66 47 47 57 72 73
18 21 22 19 44 4 20 23 24 29 50 17 55 64 63 59 61 63 60 41 54 31 22 74 79 63 70 71 69 59 57 87 69 71 69 66 56 76 55 64 82 69 67 73
14 16 46 24 18 12 23 6 11 50 11 55 53 56 50 57 51 47 49 50 47 41 38 40 78 77 75 71 60 61 57 74 66 68 63 79 72 55 77 78 73 62 69 77
36 42 30 34 10 17 13 13 9 45 47 49 50 46 42 44 43 39 38 49 44 42 37 31 60 79 78 68 70 71 82 72 73 70 82 78 78 80 79 84 84 86 88 98
8 43 12 3 17 27 21 5 43 38 29 42 43 44 44 39 34 46 36 35 44 37 47 44 47 75 40 75 74 72 78 71 73 83 79 79 82 82 86 97 99 98 101 95
4 36 40 10 38 20 30 21 36 33 28 31 36 27 29 27 41 37 39 33 46 51 50 56 47 50 78 79 76 71 72 76 76 80 85 89 80 101 88 95 92 102 109 111
3 5 35 36 32 25 17 21 17 30 26 25 27 32 33 36 29 36 38 40 54 55 47 52 63 65 60 78 76 72 77 77 77 75 78 89 96 97 95 107 108 103 105 110
6 12 15 3 33 37 7 12 14 25 23 7 20 2 20 31 29 32 31 25 50 28 60 64 50 57 66 78 72 73 75 76 75 76 91 82 95 99 94 94 103 111 114 118
29 44 28 42 52 18 52 45 45 4 15 4 23 14 15 14 7 22 32 30 18 36 44 64 66 47 65 68 75 74 67 70 75 84 89 94 93 90 96 72 84 104 115 112
18 48 39 9 9 16 6 2 23 47 46 34 10 34 27 24 13 25 28 18 31 40 27 54 63 48 59 60 72 77 79 85 79 88 84 102 108 103 115 104 120 115 117 118
13 21 32 5 4 29 6 43 43 27 7 41 36 11 5 26 22 24 9 16 21 40 25 23 60 43 35 65 65 73 46 36 87 94 93 101 91 86 122 109 123 125 112 124
10 18 20 23 15 18 4 12 19 8 8 18 9 22 16 12 17 16 5 12 26 17 24 29 47 61 59 61 63 75 42 69 67 56 95 101 84 121 116 98 125 130 115 102
20 16 15 23 15 19 19 4 4 15 10 13 16 17 28 12 12 11 23 20 13 30 33 14 26 10 7 10 26 29 37 63 47 50 99 59 67 85 113 135 98 138 81 126
8 11 9 16 16 12 18 12 14 10 11 16 9 22 13 10 23 21 21 18 23 17 25 14 22 16 19 61 53 23 33 30 43 87 54 66 109 118 125 131 147 136 144 116
5 6 6 16 13 8 7 11 14 16 10 12 8 15 9 19 4 22 27 25 21 26 21 28 31 40 28 39 40 55 46 58 33 47 50 36 98 116 106 108 120 132 139 141
7 9 9 8 8 13 15 8 3 10 14 8 16 13 21 15 22 15 20 32 13 20 27 44 31 31 44 30 34 45 37 40 62 72 67 64 74 83 96 109 77 84 66 77
13 13 13 13 13 12 13 12 10 13 10 11 16 18 18 29 23 31 27 30 39 20 34 41 25 50 41 52 65 55 53 72 53 73 74 85 81 91 110 73 68 63 62 63
26 26 23 21 21 19 19 18 18 18 16 15 15 15 17 17 26 40 31 23 36 32 30 40 45 32 48 44 48 53 63 64 63 76 88 96 95 110 92 68 64 59 55 57
31 30 30 31 29 27 28 28 28 22 21 21 21 22 23 22 34 47 33 41 33 47 43 39 46 42 39 54 43 56 64 61 69 71 86 97 112 124 73 67 62 57 55 45
36 33 35 33 33 30 27 29 27 29 21 24 22 23 26 29 31 31 34 34 49 45 56 38 35 38 57 58 59 73 55 78 66 100 99 113 119 84 49 57 58 41 27 20
Wind_Direction
274 220 228 225 223 231 237 224 231 243 239 243 242 253 310 250 256 261 236 268 264 258 265 244 250 268 263 265 269 271 272 273 265 264 272 235 231 234 261 248 269 275 277 261
273 233 240 269 246 225 233 237 232 241 245 242 247 257 248 258 252 260 263 262 258 245 260 258 260 265 264 261 263 258 260 267 270 269 237 270 266 265 261 266 276 279 263 279
257 185 127 233 227 232 231 237 245 238 250 250 248 253 248 249 259 261 263 263 255 256 257 256 257 260 259 256 259 263 264 265 260 257 259 232 238 242 263 241 254 274 287 288
222 224 221 166 229 237 98 247 249 255 258 260 260 258 259 256 257 260 259 259 257 251 256 254 254 261 257 254 255 261 257 241 235 228 262 263 265 250 268 249 278 281 286 263
206 203 223 240 244 247 238 259 263 265 261 259 257 257 256 257 250 245 242 244 255 249 253 251 255 257 258 258 261 263 239 241 246 221 233 261 226 269 242 266 271 286 281 285
99 167 193 255 260 265 268 267 265 264 259 260 252 259 255 253 256 251 249 249 214 237 246 251 253 251 231 252 264 241 257 255 274 225 278 237 268 250 245 285 276 277 268 279
240 258 262 265 269 270 213 150 263 290 238 60 65 75 262 258 248 91 96 250 249 250 249 241 232 244 240 256 243 266 257 266 269 220 238 262 285 267 281 287 276 285 266 273
265 267 267 268 83 305 225 228 235 239 73 257 87 94 92 89 88 86 92 107 100 139 183 227 250 254 250 246 249 262 237 263 275 234 269 263 288 241 285 288 272 280 287 288
271 74 83 273 271 148 224 10 241 80 315 91 93 102 105 101 106 105 101 108 123 140 153 201 230 245 249 254 259 262 271 264 241 236 272 240 272 277 283 271 285 278 275 280
97 80 83 83 71 223 270 301 357 82 81 91 97 92 119 107 123 127 125 132 117 149 153 151 200 233 242 222 245 254 260 271 274 247 224 272 277 279 280 280 279 279 264 254
324 81 31 140 270 76 73 44 92 93 92 95 107 115 116 121 137 132 144 146 162 156 164 162 178 216 237 228 237 228 246 225 241 268 240 256 248 267 258 247 253 254 255 264
231 82 80 301 83 270 80 73 88 83 99 96 98 125 126 131 129 149 157 146 158 168 175 181 173 185 225 231 241 240 236 231 229 228 229 234 267 235 254 253 266 252 247 251
118 129 81 74 63 72 276 99 303 93 83 76 76 102 123 124 143 154 166 160 172 181 175 178 192 199 198 231 234 243 225 230 229 251 258 226 226 242 253 244 250 258 256 256
50 98 59 210 67 63 63 136 118 95 87 344 298 309 122 145 159 173 174 177 181 188 186 192 192 190 203 219 243 244 245 230 261 240 226 258 240 240 256 257 259 254 255 250
71 71 68 68 67 74 67 77 74 251 288 335 77 87 91 103 166 165 195 184 187 195 197 196 210 195 208 211 228 245 263 259 242 241 233 242 246 264 261 251 269 268 258 264
37 71 71 77 73 245 61 103 57 54 56 50 34 68 80 96 266 106 208 250 207 204 223 204 214 205 237 213 225 223 235 229 256 242 243 235 238 253 242 266 248 263 265 263
354 45 68 280 23 70 197 58 58 51 20 51 55 268 318 57 73 86 240 120 265 226 238 228 217 250 246 224 236 235 249 277 234 241 250 248 265 273 241 262 254 252 268 262
7 48 56 63 43 64 16 63 244 37 262 265 27 270 278 34 272 302 229 273 251 234 232 252 230 232 241 241 241 238 272 251 247 273 252 250 258 248 258 266 258 257 269 271
56 25 18 64 30 58 57 346 323 45 320 314 269 254 39 13 232 20 242 289 280 288 290 275 319 224 260 257 266 284 264 268 289 280 252 281 291 278 263 255 279 262 276 269
357 50 353 343 57 21 47 320 322 331 301 304 293 37 36 259 254 252 19 268 283 255 256 269 258 270 309 267 274 277 283 294 293 271 307 300 272 269 266 266 259 269 262 277
351 312 339 269 327 308 360 47 316 316 15 304 333 266 311 281 311 261 274 282 317 296 314 298 326 338 308 281 294 261 311 288 279 314 291 290 284 274 271 275 272 269 267 265
298 291 286 306 300 293 282 296 347 322 323 334 306 299 306 326 294 318 300 262 291 300 319 273 297 319 251 279 299 302 266 290 310 318 319 306 315 296 301 316 300 283 290 276
284 282 281 280 282 288 275 288 294 279 291 293 297 304 305 300 267 311 318 324 316 296 315 333 288 337 321 328 330 295 319 320 300 320 302 323 318 318 325 305 300 295 290 285
310 311 298 292 288 281 281 280 279 278 275 273 268 269 275 274 294 303 296 316 291 327 300 338 309 293 337 295 292 294 294 309 289 314 330 329 325 330 320 310 306 300 290 284
305 307 308 306 308 309 312 313 312 316 314 308 297 286 298 296 267 270 291 318 284 314 326 292 314 339 338 285 284 300 304 308 294 316 329 328 333 335 317 315 310 303 294 285
303 304 304 305 306 308 311 312 315 314 318 311 311 313 308 310 313 318 301 319 281 294 287 321 323 335 294 329 289 332 301 327 314 336 333 335 336 325 315 316 314 303 293 259